Temperature
8 8 8 8 7 7 7 6 5 5 5 5 4 4 4 3 3 3 2 2 2 1 1 1 0 -0 -1 -1 -1 -2 -2 -2 -2 -3 -3 -3 -2 -2
8 8 8 7 7 7 6 6 5 5 4 4 4 3 3 3 2 2 1 1 1 1 0 -0 -1 -1 -1 -2 -2 -2 -3 -3 -3 -3 -3 -3 -3 -3
8 8 7 7 7 7 6 6 5 5 4 4 3 3 2 2 1 1 1 0 -0 -0 -1 -1 -1 -2 -2 -2 -3 -3 -3 -3 -3 -4 -4 -4 -4 -4
8 7 7 7 6 6 6 5 5 4 3 3 3 2 2 1 1 0 -0 -0 -1 -1 -1 -2 -2 -2 -2 -3 -3 -3 -4 -4 -4 -4 -4 -4 -4 -4
8 7 7 7 6 6 5 5 4 4 3 2 2 2 1 0 -0 -0 -1 -1 -1 -2 -2 -2 -2 -3 -3 -3 -4 -4 -4 -4 -5 -5 -5 -5 -5 -5
7 7 6 6 6 5 5 4 4 3 2 2 1 1 0 -0 -1 -1 -2 -2 -2 -2 -2 -3 -3 -3 -3 -4 -4 -4 -5 -5 -5 -5 -5 -5 -5 -5
7 6 6 6 5 5 4 4 3 2 2 1 0 -0 -1 -1 -2 -2 -3 -3 -3 -3 -3 -4 -4 -4 -4 -5 -5 -5 -5 -6 -6 -6 -6 -6 -6 -6
6 6 6 5 5 4 4 3 3 2 1 0 -0 -1 -1 -2 -2 -3 -3 -4 -4 -4 -5 -5 -5 -5 -5 -6 -6 -6 -6 -6 -6 -6 -6 -6 -6 -6
6 6 5 5 4 4 3 3 2 1 0 -0 -1 -1 -2 -2 -3 -4 -4 -4 -5 -5 -6 -5 -6 -6 -6 -6 -6 -6 -7 -7 -7 -7 -7 -7 -7 -7
6 5 5 4 3 3 2 2 1 1 0 -1 -1 -2 -2 -3 -3 -4 -4 -5 -5 -6 -6 -6 -6 -7 -6 -6 -7 -7 -7 -7 -7 -7 -7 -7 -7 -7
5 5 4 3 3 2 1 1 1 0 -1 -1 -2 -2 -3 -3 -4 -5 -5 -6 -6 -6 -7 -7 -7 -7 -7 -7 -7 -7 -8 -8 -7 -7 -7 -7 -7 -7
4 4 3 3 2 1 1 0 -0 -1 -1 -2 -2 -3 -3 -4 -4 -5 -6 -7 -7 -7 -7 -8 -8 -8 -8 -8 -8 -8 -8 -8 -8 -8 -8 -7 -7 -8
4 3 3 2 1 1 0 -0 -1 -1 -2 -2 -3 -3 -4 -4 -5 -6 -6 -7 -8 -8 -8 -9 -9 -9 -9 -9 -9 -8 -9 -9 -8 -8 -8 -8 -8 -8
3 3 2 1 1 0 -0 -1 -1 -2 -2 -3 -4 -4 -5 -5 -6 -6 -7 -7 -8 -8 -8 -9 -9 -9 -10 -10 -9 -9 -9 -9 -9 -8 -8 -8 -8 -8
2 2 1 1 0 -0 -1 -1 -2 -3 -3 -4 -4 -5 -5 -6 -6 -7 -7 -7 -8 -8 -8 -9 -9 -9 -10 -10 -10 -9 -9 -9 -9 -9 -9 -8 -8 -8
2 1 1 0 -0 -1 -1 -2 -3 -3 -4 -4 -5 -6 -6 -7 -7 -8 -8 -8 -8 -8 -9 -9 -9 -9 -10 -10 -10 -10 -10 -10 -9 -9 -9 -8 -8 -8
1 0 -0 -1 -1 -2 -2 -3 -3 -4 -4 -5 -5 -6 -7 -7 -8 -8 -9 -9 -9 -9 -9 -9 -9 -9 -9 -9 -9 -9 -10 -10 -9 -9 -9 -8 -8 -8
0 -0 -1 -1 -2 -2 -3 -3 -4 -4 -5 -5 -6 -7 -7 -8 -8 -9 -9 -9 -9 -10 -10 -10 -10 -10 -9 -9 -9 -9 -10 -10 -9 -9 -9 -9 -8 -8
-0 -1 -1 -2 -2 -3 -3 -4 -4 -5 -5 -6 -7 -7 -8 -8 -9 -9 -10 -10 -10 -10 -10 -10 -10 -11 -11 -11 -9 -9 -10 -10 -9 -9 -9 -9 -8 -8
-1 -1 -2 -2 -3 -3 -4 -4 -5 -5 -6 -7 -7 -8 -8 -9 -9 -10 -10 -10 -10 -10 -10 -10 -10 -11 -11 -11 -11 -9 -9 -10 -10 -9 -9 -9 -8 -7
-1 -2 -2 -3 -3 -4 -4 -5 -5 -6 -7 -7 -8 -8 -9 -9 -9 -10 -10 -10 -10 -10 -10 -10 -10 -10 -10 -10 -10 -10 -9 -9 -9 -9 -9 -9 -8 -8
-2 -2 -3 -3 -4 -4 -5 -5 -6 -6 -7 -8 -8 -9 -9 -9 -10 -10 -10 -10 -11 -11 -10 -10 -10 -10 -10 -11 -11 -10 -9 -8 -8 -9 -9 -9 -9 -9
-2 -3 -3 -4 -4 -5 -5 -6 -6 -7 -7 -8 -8 -9 -9 -10 -10 -10 -10 -11 -11 -11 -11 -11 -10 -10 -10 -10 -10 -10 -9 -9 -8 -8 -8 -8 -8 -8
Wind_Speed
9 9 7 5 5 5 5 5 4 5 6 5 4 5 6 7 8 11 12 13 16 18 19 20 20 21 22 23 23 23 24 24 25 25 26 26 26 26
7 9 8 6 5 5 5 5 5 6 6 5 5 6 7 8 10 12 13 15 17 18 19 20 20 21 22 22 23 23 24 24 24 24 25 25 25 25
9 9 9 8 6 5 5 5 5 6 8 7 6 7 9 10 9 11 12 13 14 16 18 19 20 21 22 23 23 23 23 24 23 24 24 24 25 25
11 10 9 7 8 6 6 7 6 7 7 9 8 7 9 9 10 11 11 12 14 16 18 19 20 21 22 22 23 22 22 22 22 22 23 23 24 24
11 11 10 9 9 7 7 6 6 6 6 7 8 7 7 8 9 10 11 11 13 14 16 17 19 21 22 22 22 22 21 21 21 22 22 22 23 24
10 10 9 10 9 8 7 7 6 6 6 7 8 8 8 8 8 9 10 9 10 12 13 15 18 20 20 20 20 20 20 20 21 22 22 22 22 23
8 8 8 8 8 7 6 6 6 5 5 6 7 8 8 8 8 8 10 11 11 9 9 11 13 14 15 16 17 18 19 20 21 21 21 21 21 21
9 8 7 8 8 9 9 8 7 6 6 6 7 8 10 9 8 8 9 10 10 7 10 12 12 12 12 13 16 19 19 20 20 20 20 20 20 21
8 7 6 6 7 6 8 9 9 9 8 7 8 9 9 9 9 10 10 11 12 11 11 12 11 12 11 14 17 17 17 18 19 20 20 20 21 21
7 7 7 6 6 6 6 6 6 7 7 7 8 9 9 9 9 9 11 11 11 10 10 10 11 11 12 13 14 15 17 18 19 20 20 20 21 21
6 6 6 6 7 7 5 5 6 6 6 9 10 11 11 11 10 7 7 8 10 10 8 7 10 12 11 10 11 14 16 17 19 19 19 19 20 20
5 5 6 6 7 8 6 5 6 6 5 5 7 8 9 9 9 7 7 8 9 8 6 6 9 9 8 7 9 12 13 15 17 18 17 18 18 14
5 4 5 7 7 7 6 5 5 5 4 5 5 6 5 5 5 6 6 6 8 9 8 7 8 9 8 9 11 11 10 11 12 13 14 15 16 14
5 4 4 7 6 7 5 4 4 4 3 4 5 5 5 5 5 6 6 8 9 10 11 9 7 9 10 12 11 10 11 11 10 10 10 14 15 15
3 4 4 6 6 5 4 3 3 3 3 4 5 6 5 5 5 5 5 6 8 10 10 9 8 9 10 11 11 12 12 11 9 9 10 11 10 10
4 4 5 5 3 2 2 2 2 3 3 5 5 5 5 5 5 5 5 6 6 7 6 8 9 9 10 11 11 12 11 9 10 11 11 11 10 9
5 3 3 3 3 2 2 2 2 3 3 4 5 5 5 5 5 5 5 6 6 7 7 6 8 9 10 11 10 10 11 11 10 11 11 11 10 9
5 4 4 3 3 3 3 3 3 3 4 4 4 5 5 5 5 5 5 6 7 7 7 7 7 8 7 6 8 9 9 10 10 11 10 11 11 10
4 4 3 3 3 3 3 3 3 3 3 4 4 5 5 5 5 5 6 6 7 7 7 6 6 6 9 10 6 5 9 11 11 11 10 10 11 11
3 3 3 3 3 3 3 3 3 3 3 4 4 4 4 5 5 6 6 6 7 7 7 6 5 6 7 9 8 9 12 11 10 11 11 11 11 13
3 3 3 3 3 3 3 3 3 4 4 4 4 5 4 5 5 5 6 7 7 7 7 7 6 8 7 7 8 9 9 11 11 10 11 11 10 9
3 3 3 3 3 3 3 3 4 4 4 4 4 4 4 5 5 6 6 6 6 6 7 7 6 6 6 7 10 11 12 12 12 13 12 10 7 6
3 3 3 3 3 3 3 4 4 4 4 4 4 4 4 5 5 5 5 6 6 6 6 7 6 6 6 7 9 10 12 13 11 10 9 10 12 15
Wind_Direction
200 199 201 199 202 209 215 220 237 265 272 265 255 244 253 265 276 283 287 291 296 297 299 301 303 303 303 304 303 303 302 301 301 300 299 299 299 298
191 195 199 198 197 199 208 219 231 248 267 273 268 268 269 275 281 285 288 292 289 291 295 298 301 302 303 304 303 302 302 301 301 301 301 300 299 299
191 198 201 195 196 199 205 215 226 236 258 273 273 276 277 280 283 286 290 291 292 292 296 298 300 301 303 303 302 302 303 303 302 302 302 301 300 300
193 197 199 194 202 203 208 218 227 234 253 274 280 282 281 285 288 290 291 291 291 294 296 297 298 300 302 303 303 303 304 304 303 303 303 302 302 302
194 197 198 196 206 208 213 222 231 240 249 267 281 287 286 287 292 291 291 291 293 295 295 295 298 301 302 302 303 305 305 305 305 304 304 304 304 302
195 197 197 199 208 210 215 224 230 239 251 262 276 285 287 293 294 296 298 297 299 299 295 297 299 300 299 300 303 305 307 306 305 305 305 305 305 305
190 195 199 201 207 208 213 219 221 235 249 261 273 283 286 293 293 297 297 303 302 299 302 303 304 302 302 302 303 306 306 305 306 306 306 307 307 306
189 194 197 200 206 214 221 224 225 236 246 259 270 276 284 291 296 296 298 303 305 307 306 304 304 301 302 303 308 309 307 307 309 309 309 310 310 309
191 190 192 202 205 216 225 230 235 243 250 260 269 275 287 293 296 294 293 294 295 303 307 300 302 301 304 304 306 308 309 311 313 311 310 310 310 310
190 190 193 199 202 212 223 232 242 247 251 259 268 278 285 293 294 292 295 295 295 295 298 297 304 307 309 306 304 307 311 313 314 313 311 310 310 309
188 191 196 200 198 202 216 231 249 261 259 263 274 281 287 289 293 295 295 296 300 304 306 297 305 311 307 302 304 309 309 309 311 311 311 311 311 310
184 190 196 204 197 197 217 231 249 267 271 272 274 277 280 282 284 284 290 293 300 305 313 308 307 318 309 304 312 313 310 310 312 310 310 312 313 312
181 188 195 200 202 203 221 239 256 276 276 275 278 282 284 284 286 287 285 283 288 288 301 309 303 306 296 302 308 308 310 314 314 311 309 311 312 309
183 186 189 194 201 204 218 245 256 265 272 276 280 283 287 290 292 292 285 279 277 281 292 297 291 296 299 300 303 308 314 314 311 309 311 312 309 307
168 165 173 185 193 201 215 232 239 257 270 276 281 286 292 297 299 299 294 289 287 284 285 285 284 289 289 291 296 305 311 312 310 312 313 311 308 307
147 151 157 161 175 193 209 223 247 263 275 278 286 292 297 298 296 300 302 306 301 299 294 292 290 289 287 290 293 298 304 304 308 312 312 308 305 302
146 147 164 178 194 207 220 238 256 267 274 281 287 292 295 297 298 302 301 301 298 306 312 312 306 295 284 283 288 294 303 307 310 315 313 309 306 305
154 174 189 200 213 223 235 249 259 268 276 282 285 289 293 296 298 300 299 297 299 304 308 313 317 315 308 287 259 286 301 308 312 312 309 307 307 310
171 188 202 211 221 230 241 252 261 271 278 277 280 285 288 291 293 296 298 300 301 303 306 309 311 315 317 320 307 278 302 309 311 309 308 307 304 306
190 199 209 216 224 234 244 256 265 271 270 273 277 280 282 286 289 294 298 301 302 304 305 306 307 309 304 304 301 299 300 300 307 308 310 309 302 298
194 204 212 220 230 238 246 254 260 265 271 274 275 277 279 282 287 293 296 299 299 300 302 305 309 308 294 289 293 299 306 307 302 297 304 308 311 310
197 207 213 222 230 238 244 250 257 262 265 266 273 277 278 279 283 287 291 296 297 297 299 303 309 307 300 297 303 307 311 316 313 302 288 280 294 307
202 212 219 224 231 238 243 248 254 261 264 267 272 274 276 279 283 285 289 291 294 298 302 306 310 309 304 300 302 307 311 318 322 323 317 312 302 290
Height
1516 1517 1518 1518 1519 1519 1519 1518 1518 1515 1513 1511 1509 1507 1505 1502 1499 1496 1493 1489 1486 1483 1479 1475 1471 1467 1464 1460 1457 1453 1450 1447 1444 1441 1439 1436 1434 1432
1511 1512 1513 1514 1514 1514 1514 1513 1513 1511 1509 1507 1505 1503 1500 1497 1494 1491 1488 1484 1480 1477 1473 1469 1465 1461 1457 1454 1450 1447 1443 1440 1437 1434 1431 1429 1427 1425
1506 1507 1508 1509 1509 1509 1509 1509 1508 1506 1504 1501 1500 1498 1495 1492 1489 1486 1482 1478 1475 1471 1467 1463 1459 1455 1451 1447 1444 1440 1437 1433 1430 1427 1424 1422 1420 1417
1501 1502 1503 1504 1504 1504 1504 1503 1503 1501 1499 1496 1495 1493 1490 1487 1484 1480 1477 1473 1469 1465 1461 1457 1453 1449 1445 1441 1437 1433 1430 1427 1423 1420 1418 1415 1413 1411
1496 1497 1498 1499 1499 1499 1499 1498 1497 1496 1494 1492 1489 1487 1485 1482 1478 1475 1471 1467 1463 1460 1456 1452 1448 1444 1439 1435 1431 1427 1424 1420 1417 1414 1411 1409 1406 1404
1491 1492 1493 1494 1494 1494 1494 1493 1492 1491 1489 1487 1484 1482 1480 1477 1474 1470 1465 1462 1458 1454 1450 1446 1442 1438 1434 1429 1425 1421 1418 1414 1411 1408 1406 1403 1400 1398
1485 1487 1487 1488 1489 1489 1488 1488 1487 1485 1484 1482 1479 1477 1475 1472 1469 1465 1461 1457 1453 1449 1445 1441 1437 1432 1428 1424 1420 1416 1412 1409 1406 1403 1400 1397 1394 1392
1480 1481 1482 1483 1483 1483 1483 1483 1482 1481 1479 1477 1475 1472 1470 1467 1464 1460 1457 1452 1447 1445 1440 1435 1432 1427 1423 1419 1415 1411 1407 1404 1400 1397 1394 1392 1389 1386
1475 1476 1477 1477 1478 1478 1477 1477 1476 1475 1474 1473 1470 1468 1465 1463 1459 1456 1452 1448 1444 1440 1435 1429 1427 1422 1419 1414 1410 1406 1403 1399 1395 1392 1389 1386 1383 1381
1470 1471 1471 1472 1472 1473 1472 1471 1471 1470 1469 1467 1465 1463 1461 1458 1455 1452 1447 1443 1439 1436 1432 1426 1422 1418 1414 1410 1406 1402 1398 1394 1391 1387 1384 1381 1378 1375
1465 1465 1466 1467 1467 1468 1467 1466 1466 1465 1463 1462 1460 1458 1455 1453 1450 1446 1442 1438 1434 1431 1428 1423 1418 1413 1409 1406 1402 1398 1394 1390 1386 1383 1379 1376 1373 1370
1460 1461 1461 1462 1462 1462 1462 1462 1461 1460 1458 1456 1454 1452 1450 1447 1444 1442 1438 1435 1431 1427 1423 1420 1415 1411 1405 1401 1399 1395 1391 1386 1383 1379 1375 1372 1369 1365
1455 1456 1457 1457 1458 1458 1458 1457 1456 1455 1453 1451 1449 1447 1445 1442 1439 1437 1434 1431 1428 1424 1421 1417 1412 1409 1405 1399 1394 1391 1387 1383 1379 1375 1372 1369 1365 1362
1451 1452 1453 1453 1453 1453 1453 1453 1452 1450 1449 1447 1445 1442 1440 1437 1435 1432 1429 1426 1423 1420 1417 1414 1410 1406 1402 1396 1392 1388 1384 1380 1376 1372 1369 1365 1362 1359
1447 1448 1449 1449 1449 1449 1449 1448 1447 1446 1444 1442 1440 1438 1436 1433 1430 1427 1424 1422 1419 1416 1413 1409 1406 1403 1399 1394 1389 1385 1381 1377 1374 1370 1366 1362 1359 1355
1443 1444 1445 1445 1445 1445 1445 1444 1443 1441 1440 1438 1436 1434 1431 1428 1426 1423 1420 1417 1414 1412 1409 1406 1403 1399 1395 1391 1387 1383 1379 1375 1371 1368 1363 1359 1356 1353
1439 1440 1441 1441 1441 1441 1440 1439 1438 1437 1436 1434 1432 1429 1427 1425 1422 1420 1417 1414 1411 1408 1405 1403 1400 1396 1392 1389 1384 1380 1377 1373 1369 1365 1360 1356 1353 1350
1436 1436 1437 1437 1436 1436 1435 1435 1434 1433 1431 1429 1427 1425 1423 1421 1419 1416 1414 1411 1409 1406 1403 1400 1396 1392 1389 1385 1383 1378 1374 1370 1366 1362 1358 1354 1350 1347
1432 1432 1433 1433 1432 1432 1431 1430 1430 1428 1427 1425 1423 1421 1419 1417 1415 1413 1411 1409 1406 1403 1401 1398 1394 1391 1387 1383 1380 1377 1372 1367 1363 1359 1356 1352 1347 1344
1428 1429 1429 1429 1428 1428 1427 1426 1425 1424 1423 1421 1419 1417 1416 1414 1412 1410 1408 1406 1403 1401 1398 1396 1393 1390 1387 1383 1378 1373 1371 1366 1361 1357 1353 1349 1345 1342
1424 1425 1425 1425 1424 1424 1423 1422 1421 1420 1419 1417 1415 1414 1412 1410 1409 1407 1405 1403 1401 1398 1396 1393 1391 1388 1384 1380 1376 1371 1368 1365 1360 1355 1351 1346 1342 1339
1420 1421 1421 1420 1420 1419 1419 1418 1417 1416 1414 1413 1411 1410 1409 1407 1405 1404 1402 1400 1398 1396 1393 1391 1388 1385 1382 1379 1374 1370 1365 1362 1358 1354 1350 1347 1343 1339
1416 1417 1416 1416 1416 1415 1414 1414 1413 1412 1410 1409 1408 1406 1405 1404 1402 1401 1399 1397 1395 1393 1391 1389 1386 1383 1380 1377 1373 1369 1364 1360 1356 1352 1349 1346 1342 1339